Time,TemperatureF,DewpointF,PressureIn,WindDirection,WindDirectionDegrees,WindSpeedMPH,WindSpeedGustMPH,Humidity,HourlyPrecipIn,Conditions,Clouds,dailyrainin,SoftwareType,DateUTC
2013-04-30 09:47:00,-999.0,-99.9,0.00,North,-999,-999.0,-999.0,-999,0.00,,,0.00,weatherlink.com 1.10,2013-04-30 13:47:00,
2013-04-30 10:02:00,47.3,-99.9,30.00,NE,38,4.0,9.0,-999,0.00,,,0.00,weatherlink.com 1.10,2013-04-30 14:02:00,
2013-04-30 10:17:00,47.6,45.0,29.99,ESE,113,4.0,11.0,89,0.00,,,0.00,weatherlink.com 1.10,2013-04-30 14:17:00,
2013-04-30 10:32:00,47.5,45.0,30.01,SSE,163,2.0,11.0,89,0.00,,,0.00,weatherlink.com 1.10,2013-04-30 14:32:00,
2013-04-30 10:47:00,47.3,44.0,30.01,East,94,3.0,13.0,89,0.00,,,0.00,weatherlink.com 1.10,2013-04-30 14:47:00,
2013-04-30 11:02:00,47.2,44.0,30.01,ESE,116,9.0,13.0,89,0.00,,,0.00,weatherlink.com 1.10,2013-04-30 15:02:00,
2013-04-30 11:17:00,47.5,45.0,30.00,SSE,160,3.0,13.0,89,0.00,,,0.00,weatherlink.com 1.10,2013-04-30 15:17:00,
2013-04-30 11:32:00,47.9,45.0,29.99,ESE,118,10.0,14.0,89,0.00,,,0.00,weatherlink.com 1.10,2013-04-30 15:32:00,
2013-04-30 11:47:00,48.1,45.0,29.99,ESE,107,4.0,14.0,88,0.00,,,0.00,weatherlink.com 1.10,2013-04-30 15:47:00,
2013-04-30 12:02:00,48.6,45.0,29.97,SSE,159,5.0,12.0,88,0.00,,,0.00,weatherlink.com 1.10,2013-04-30 16:02:00,
2013-04-30 12:17:00,49.6,46.0,29.94,ESE,113,12.0,17.0,88,0.00,,,0.00,weatherlink.com 1.10,2013-04-30 16:17:00,
2013-04-30 12:32:00,51.9,48.0,29.95,SE,132,8.0,19.0,87,0.00,,,0.00,weatherlink.com 1.10,2013-04-30 16:32:00,
2013-04-30 12:47:00,50.3,47.0,29.98,South,171,10.0,18.0,87,0.00,,,0.00,weatherlink.com 1.10,2013-04-30 16:47:00,
2013-04-30 13:02:00,49.6,46.0,29.98,SSE,162,6.0,15.0,87,0.00,,,0.00,weatherlink.com 1.10,2013-04-30 17:02:00,
2013-04-30 13:17:00,50.7,47.0,29.97,East,89,7.0,18.0,86,0.00,,,0.00,weatherlink.com 1.10,2013-04-30 17:17:00,
2013-04-30 13:32:00,51.3,47.0,29.96,ENE,76,5.0,12.0,86,0.00,,,0.00,weatherlink.com 1.10,2013-04-30 17:32:00,
2013-04-30 13:47:00,51.9,48.0,29.95,SSE,150,7.0,14.0,86,0.00,,,0.00,weatherlink.com 1.10,2013-04-30 17:47:00,
2013-04-30 14:02:00,51.4,47.0,29.96,South,173,5.0,12.0,86,0.00,,,0.00,weatherlink.com 1.10,2013-04-30 18:02:00,
2013-04-30 14:17:00,50.3,46.0,29.96,East,99,8.0,13.0,86,0.00,,,0.00,weatherlink.com 1.10,2013-04-30 18:17:00,
2013-04-30 14:32:00,51.5,48.0,29.97,ESE,116,9.0,14.0,86,0.00,,,0.00,weatherlink.com 1.10,2013-04-30 18:32:00,
2013-04-30 14:47:00,51.7,48.0,29.96,East,81,3.0,15.0,86,0.00,,,0.00,weatherlink.com 1.10,2013-04-30 18:47:00,
2013-04-30 15:02:00,52.3,48.0,29.97,ESE,103,9.0,14.0,86,0.00,,,0.00,weatherlink.com 1.10,2013-04-30 19:02:00,
2013-04-30 15:17:00,52.3,48.0,29.97,East,90,2.0,11.0,86,0.00,,,0.00,weatherlink.com 1.10,2013-04-30 19:17:00,
2013-04-30 15:32:00,51.6,48.0,29.96,NE,45,3.0,15.0,86,0.00,,,0.00,weatherlink.com 1.10,2013-04-30 19:32:00,
2013-04-30 15:47:00,52.2,48.0,29.96,ESE,105,10.0,15.0,86,0.00,,,0.00,weatherlink.com 1.10,2013-04-30 19:47:00,
2013-04-30 16:02:00,54.3,50.0,29.94,SE,139,5.0,12.0,85,0.00,,,0.00,weatherlink.com 1.10,2013-04-30 20:02:00,
2013-04-30 16:17:00,54.6,50.0,29.94,ESE,103,11.0,18.0,85,0.01,,,0.01,weatherlink.com 1.10,2013-04-30 20:17:00,
2013-04-30 16:33:00,55.3,51.0,29.94,ESE,105,8.0,16.0,84,0.01,,,0.01,weatherlink.com 1.10,2013-04-30 20:33:00,
2013-04-30 16:48:00,55.5,51.0,29.94,ESE,118,8.0,15.0,84,0.01,,,0.01,weatherlink.com 1.10,2013-04-30 20:48:00,
2013-04-30 17:03:00,56.1,51.0,29.94,East,81,7.0,14.0,83,0.01,,,0.01,weatherlink.com 1.10,2013-04-30 21:03:00,
2013-04-30 17:18:00,56.5,51.0,29.94,East,92,10.0,11.0,83,0.00,,,0.01,weatherlink.com 1.10,2013-04-30 21:18:00,
2013-04-30 17:33:00,57.0,52.0,29.94,SSE,156,8.0,18.0,82,0.00,,,0.01,weatherlink.com 1.10,2013-04-30 21:33:00,
2013-04-30 17:48:00,57.2,52.0,29.94,ESE,117,4.0,11.0,82,0.00,,,0.01,weatherlink.com 1.10,2013-04-30 21:48:00,
2013-04-30 18:03:00,56.5,51.0,29.94,SE,134,5.0,15.0,83,0.00,,,0.01,weatherlink.com 1.10,2013-04-30 22:03:00,
2013-04-30 18:18:00,56.9,52.0,29.94,ESE,121,5.0,12.0,83,0.00,,,0.01,weatherlink.com 1.10,2013-04-30 22:18:00,
2013-04-30 18:33:00,56.1,51.0,29.94,SE,137,5.0,14.0,83,0.00,,,0.01,weatherlink.com 1.10,2013-04-30 22:33:00,
2013-04-30 18:48:00,55.8,51.0,29.95,ESE,109,3.0,13.0,84,0.00,,,0.01,weatherlink.com 1.10,2013-04-30 22:48:00,
2013-04-30 19:03:00,55.9,51.0,29.95,ESE,105,7.0,13.0,84,0.00,,,0.01,weatherlink.com 1.10,2013-04-30 23:03:00,
2013-04-30 19:18:00,55.9,51.0,29.95,SSE,148,6.0,15.0,84,0.00,,,0.01,weatherlink.com 1.10,2013-04-30 23:18:00,
2013-04-30 19:33:00,55.1,50.0,29.96,ESE,116,10.0,15.0,84,0.00,,,0.01,weatherlink.com 1.10,2013-04-30 23:33:00,
2013-04-30 19:48:00,54.5,50.0,29.96,East,101,2.0,14.0,84,0.00,,,0.01,weatherlink.com 1.10,2013-04-30 23:48:00,
2013-04-30 20:03:00,54.2,50.0,29.97,SE,136,5.0,14.0,85,0.00,,,0.01,weatherlink.com 1.10,2013-05-01 00:03:00,
2013-04-30 20:18:00,53.8,49.0,29.97,East,86,5.0,12.0,85,0.00,,,0.01,weatherlink.com 1.10,2013-05-01 00:18:00,
2013-04-30 20:33:00,53.6,49.0,29.98,SE,140,8.0,13.0,85,0.00,,,0.01,weatherlink.com 1.10,2013-05-01 00:33:00,
2013-04-30 20:48:00,53.5,49.0,29.98,East,86,5.0,13.0,85,0.00,,,0.01,weatherlink.com 1.10,2013-05-01 00:48:00,
2013-04-30 21:03:00,53.3,49.0,29.99,NE,49,4.0,11.0,85,0.00,,,0.01,weatherlink.com 1.10,2013-05-01 01:03:00,
2013-04-30 21:18:00,53.2,49.0,30.00,ESE,111,7.0,11.0,85,0.00,,,0.01,weatherlink.com 1.10,2013-05-01 01:18:00,
2013-04-30 21:33:00,53.2,49.0,30.00,SE,131,4.0,14.0,85,0.00,,,0.01,weatherlink.com 1.10,2013-05-01 01:33:00,
2013-04-30 21:48:00,53.2,49.0,30.01,ENE,76,0.0,13.0,85,0.00,,,0.01,weatherlink.com 1.10,2013-05-01 01:48:00,
2013-04-30 22:03:00,53.2,49.0,30.01,ESE,119,4.0,15.0,84,0.00,,,0.01,weatherlink.com 1.10,2013-05-01 02:03:00,
2013-04-30 22:18:00,53.0,49.0,30.01,ESE,116,5.0,15.0,85,0.00,,,0.01,weatherlink.com 1.10,2013-05-01 02:18:00,
2013-04-30 22:33:00,53.0,49.0,30.01,ESE,103,1.0,12.0,85,0.00,,,0.01,weatherlink.com 1.10,2013-05-01 02:33:00,
2013-04-30 22:48:00,52.9,49.0,30.02,ESE,121,2.0,15.0,85,0.00,,,0.01,weatherlink.com 1.10,2013-05-01 02:48:00,
2013-04-30 23:03:00,52.8,48.0,30.02,ESE,110,3.0,13.0,85,0.00,,,0.01,weatherlink.com 1.10,2013-05-01 03:03:00,
2013-04-30 23:18:00,52.9,49.0,30.02,SE,130,2.0,11.0,85,0.00,,,0.01,weatherlink.com 1.10,2013-05-01 03:18:00,
2013-04-30 23:33:00,53.3,49.0,30.02,SE,136,7.0,9.0,84,0.00,,,0.01,weatherlink.com 1.10,2013-05-01 03:33:00,
2013-04-30 23:48:00,53.4,49.0,30.01,ESE,113,7.0,10.0,84,0.00,,,0.01,weatherlink.com 1.10,2013-05-01 03:48:00,